Baker, MT

12:05 AM MDT on April 23, 2017 (GMT -0600)
Baker Municipal

Weather History for KBHK - June, 2013

Change the Weather History Date:

Thursday, June 27, 2013

  Actual Average Record
Temperature  
Mean Temperature 68 °F -  
Max Temperature 80 °F 70 °F 97 °F (2002)
Min Temperature 57 °F 36 °F 37 °F (2000)
Cooling Degree Days 4    
Growing Degree Days 18 (Base 50)    
Moisture  
Dew Point 50 °F    
Average Humidity 52    
Maximum Humidity 81    
Minimum Humidity 32    
Precipitation  
Precipitation 0.00 in - - ()
Sea Level Pressure  
Sea Level Pressure 30.07 in    
Wind  
Wind Speed 9 mph (WNW)    
Max Wind Speed 21 mph    
Max Gust Speed 28 mph    
Visibility 10 miles    
Events      
Averages and records for this station are not official NWS values.
T = Trace of Precipitation, MM = Missing Value Source: NWS Daily Summary

Daily Weather History Graph

Daily Weather History Graph

Search for Another Location

Airport or City:

Trip Planner

Search our weather history database for the weather conditions in past years. The results will help you decide how hot, cold, wet, or windy it might be!

Date:

Astronomy

Jun. 27, 2013 Rise Set
Actual Time 5:06 AM MDT 8:53 PM MDT
Civil Twilight 4:27 AM MDT 9:32 PM MDT
Nautical Twilight 3:35 AM MDT 10:24 PM MDT
Astronomical Twilight 2:20 AM MDT 11:39 PM MDT
Moon 11:31 PM MDT (6/27) 10:29 AM MDT (6/27)
Length of Visible Light 17h 04m
Length of Day
15h 46m
Waning Gibbous, 76% of the Moon is Illuminated
Jun 27
Waning Gibbous
Jun 29
Last Quarter
Jul 8
New
Jul 15
First Quarter
Jul 22
Full

Hourly Weather History & Observations

Time (MDT) Temp. Dew Point Humidity Pressure Visibility Wind Dir Wind Speed Gust Speed Precip Events Conditions
12:51 AM 64.0 °F 52.0 °F 65% 30.02 in 10.0 mi West 8.1 mph - N/A   Scattered Clouds
1:51 AM 62.1 °F 51.1 °F 67% 30.00 in 10.0 mi WSW 5.8 mph - 0.00 in   Partly Cloudy
2:51 AM 62.1 °F 52.0 °F 70% 30.01 in 10.0 mi West 3.5 mph - N/A   Clear
3:51 AM 61.0 °F 50.0 °F 67% 30.01 in 10.0 mi West 4.6 mph - N/A   Clear
4:51 AM 60.1 °F 48.9 °F 67% 30.01 in 10.0 mi West 3.5 mph - N/A   Clear
5:51 AM 57.0 °F 51.1 °F 81% 30.03 in 10.0 mi Calm Calm - N/A   Clear
6:51 AM 63.0 °F 52.0 °F 67% 30.04 in 10.0 mi West 5.8 mph - N/A   Clear
7:51 AM 68.0 °F 53.1 °F 59% 30.05 in 10.0 mi West 10.4 mph - N/A   Clear
8:51 AM 71.1 °F 51.1 °F 49% 30.07 in 10.0 mi WNW 15.0 mph 20.7 mph N/A   Clear
9:51 AM 73.9 °F 51.1 °F 45% 30.06 in 10.0 mi WNW 13.8 mph - N/A   Clear
10:51 AM 75.9 °F 50.0 °F 40% 30.06 in 10.0 mi WNW 13.8 mph - N/A   Clear
11:51 AM 77.0 °F 50.0 °F 39% 30.07 in 10.0 mi WNW 13.8 mph 27.6 mph N/A   Clear
12:51 PM 78.1 °F 50.0 °F 37% 30.07 in 10.0 mi WNW 17.3 mph 23.0 mph N/A   Clear
1:51 PM 78.1 °F 48.9 °F 36% 30.08 in 10.0 mi WNW 15.0 mph 24.2 mph N/A   Clear
2:51 PM 78.1 °F 50.0 °F 37% 30.09 in 10.0 mi WNW 19.6 mph 24.2 mph N/A   Clear
3:51 PM 80.1 °F 50.0 °F 35% 30.08 in 10.0 mi NW 18.4 mph 25.3 mph N/A   Partly Cloudy
4:51 PM 79.0 °F 48.9 °F 35% 30.09 in 10.0 mi NNW 20.7 mph 24.2 mph N/A   Clear
5:51 PM 78.1 °F 46.0 °F 32% 30.09 in 10.0 mi NW 18.4 mph 27.6 mph N/A   Clear
6:51 PM 75.9 °F 46.0 °F 35% 30.10 in 10.0 mi NNW 15.0 mph - N/A   Clear
7:51 PM 73.0 °F 48.0 °F 41% 30.10 in 10.0 mi NNW 10.4 mph - N/A   Clear
8:51 PM 68.0 °F 48.9 °F 50% 30.11 in 10.0 mi NNW 8.1 mph - N/A   Clear
9:51 PM 64.0 °F 50.0 °F 60% 30.14 in 10.0 mi Calm Calm - N/A   Clear
10:51 PM 62.1 °F 48.9 °F 62% 30.15 in 10.0 mi Calm Calm - N/A   Clear
11:51 PM 59.0 °F 50.0 °F 72% 30.15 in 10.0 mi Calm Calm - N/A   Clear